Weather History for Natchez, MS

Change the Weather History Date:

Saturday, December 1, 2012

  Actual Average Record
Temperature  
Mean Temperature 63 °F -  
Max Temperature 75 °F 64 °F 80 °F (1991)
Min Temperature 51 °F 41 °F 24 °F (1964)
Degree Days  
Heating Degree Days 2    
Growing Degree Days 13 (Base 50)    
Moisture  
Dew Point 55 °F    
Average Humidity 77    
Maximum Humidity 100    
Minimum Humidity 50    
Precipitation  
Precipitation 0.00 in - - ()
Sea Level Pressure  
Sea Level Pressure 30.19 in    
Wind  
Wind Speed 6 mph (SSE)    
Max Wind Speed 13 mph    
Max Gust Speed 17 mph    
Visibility 10 miles    
Events      
Averages and records for this station are not official NWS values.
T = Trace of Precipitation, MM = Missing Value Source: NWS Daily Summary

Daily Weather History Graph

Daily Weather History Graph

Search for Another Location

Airport:

Trip Planner

Search our weather history database for the weather conditions in past years. The results will help you decide how hot, cold, wet, or windy it might be!

Date:

Astronomy

Dec. 01, 2012 Rise Set
Actual Time 6:47 AM CST 5:01 PM CST
Civil Twilight 6:20 AM CST 5:27 PM CST
Nautical Twilight 5:50 AM CST 5:57 PM CST
Astronomical Twilight 5:21 AM CST 6:27 PM CST
Moon 7:48 PM CST (12/1) 9:02 AM CST (12/1)
Length of Visible Light 11h 07m
Length of Day
10h 14m
Waning Gibbous, 91% of the Moon is Illuminated
Dec 1
Waning Gibbous
Dec 6
Last Quarter
Dec 13
New
Dec 19
First Quarter
Dec 28
Full

Hourly Weather History & Observations

Time (CST) Temp. Dew Point Humidity Pressure Visibility Wind Dir Wind Speed Gust Speed Precip Events Conditions
12:15 AM 53.6 °F 48.2 °F 82% 30.19 in 10.0 mi SSE 5.8 mph - N/A   Clear
12:35 AM 53.6 °F 50.0 °F 88% 30.19 in 10.0 mi SSE 4.6 mph - N/A   Clear
12:55 AM 53.6 °F 48.2 °F 82% 30.20 in 10.0 mi SSE 3.5 mph - N/A   Clear
1:15 AM 53.6 °F 48.2 °F 82% 30.20 in 10.0 mi South 3.5 mph - N/A   Clear
1:35 AM 53.6 °F 48.2 °F 82% 30.20 in 10.0 mi Calm Calm - N/A   Clear
1:55 AM 53.6 °F 48.2 °F 82% 30.20 in 10.0 mi SE 3.5 mph - N/A   Clear
2:15 AM 51.8 °F 46.4 °F 82% 30.20 in 10.0 mi SE 3.5 mph - N/A   Clear
3:15 AM 51.8 °F 48.2 °F 88% 30.19 in 10.0 mi SSE 4.6 mph - N/A   Clear
3:35 AM 51.8 °F 48.2 °F 88% 30.19 in 10.0 mi South 4.6 mph - N/A   Clear
3:55 AM 51.8 °F 48.2 °F 88% 30.19 in 10.0 mi SSE 4.6 mph - N/A   Clear
4:15 AM 51.8 °F 48.2 °F 88% 30.19 in 10.0 mi SSE 8.1 mph - N/A   Clear
4:35 AM 51.8 °F 48.2 °F 88% 30.19 in 10.0 mi SSE 5.8 mph - N/A   Clear
5:15 AM 51.8 °F 48.2 °F 88% 30.20 in 10.0 mi SSE 4.6 mph - N/A   Clear
5:35 AM 51.8 °F 48.2 °F 88% 30.21 in 10.0 mi SSE 4.6 mph - N/A   Clear
6:35 AM 51.8 °F 48.2 °F 88% 30.22 in 10.0 mi SSE 4.6 mph - N/A   Mostly Cloudy
6:55 AM 51.8 °F 51.8 °F 100% 30.22 in 8.0 mi SSE 4.6 mph - N/A   Mostly Cloudy
7:15 AM 51.8 °F 50.0 °F 94% 30.23 in 10.0 mi SSE 4.6 mph - N/A   Scattered Clouds
8:15 AM 57.2 °F 53.6 °F 88% 30.23 in 10.0 mi SSE 6.9 mph - N/A   Partly Cloudy
8:35 AM 59.0 °F 53.6 °F 82% 30.24 in 10.0 mi SSE 8.1 mph - N/A   Partly Cloudy
8:55 AM 60.8 °F 53.6 °F 77% 30.24 in 10.0 mi SSE 10.4 mph - N/A   Clear
9:15 AM 62.6 °F 55.4 °F 77% 30.25 in 10.0 mi South 8.1 mph - N/A   Clear
9:35 AM 64.4 °F 55.4 °F 73% 30.25 in 10.0 mi SSE 9.2 mph - N/A   Scattered Clouds
10:15 AM 66.2 °F 55.4 °F 68% 30.25 in 10.0 mi SSE 10.4 mph - N/A   Clear
10:35 AM 66.2 °F 55.4 °F 68% 30.24 in 10.0 mi SSE 10.4 mph - N/A   Clear
11:15 AM 69.8 °F 57.2 °F 64% 30.23 in 10.0 mi South 9.2 mph - N/A   Overcast
11:35 AM 71.6 °F 57.2 °F 60% 30.22 in 10.0 mi SSE 10.4 mph - N/A   Overcast
12:15 PM 71.6 °F 57.2 °F 60% 30.20 in 10.0 mi South 10.4 mph - N/A   Scattered Clouds
12:35 PM 73.4 °F 57.2 °F 57% 30.19 in 10.0 mi South 9.2 mph - N/A   Clear
12:55 PM 73.4 °F 55.4 °F 53% 30.17 in 10.0 mi SSW 5.8 mph - N/A   Clear
1:15 PM 73.4 °F 55.4 °F 53% 30.17 in 10.0 mi South 6.9 mph - N/A   Clear
1:35 PM 73.4 °F 55.4 °F 53% 30.16 in 10.0 mi SSW 6.9 mph - N/A   Partly Cloudy
1:55 PM 75.2 °F 55.4 °F 50% 30.16 in 10.0 mi South 10.4 mph - N/A   Mostly Cloudy
2:15 PM 73.4 °F 55.4 °F 53% 30.16 in 10.0 mi SSE 8.1 mph - N/A   Mostly Cloudy
2:35 PM 75.2 °F 55.4 °F 50% 30.15 in 10.0 mi South 6.9 mph - N/A   Mostly Cloudy
3:15 PM 73.4 °F 57.2 °F 57% 30.15 in 10.0 mi SE 9.2 mph - N/A   Clear
3:35 PM 73.4 °F 57.2 °F 57% 30.15 in 10.0 mi South 10.4 mph - N/A   Clear
3:55 PM 73.4 °F 57.2 °F 57% 30.15 in 10.0 mi SSE 8.1 mph - N/A   Clear
4:15 PM 71.6 °F 57.2 °F 60% 30.15 in 10.0 mi SE 9.2 mph - N/A   Clear
4:35 PM 71.6 °F 57.2 °F 60% 30.15 in 10.0 mi SE 5.8 mph - N/A   Clear
4:55 PM 69.8 °F 57.2 °F 64% 30.15 in 10.0 mi SE 6.9 mph - N/A   Clear
5:15 PM 68.0 °F 57.2 °F 68% 30.15 in 10.0 mi SE 4.6 mph - N/A   Partly Cloudy
5:55 PM 66.2 °F 57.2 °F 73% 30.16 in 10.0 mi SE 5.8 mph - N/A   Scattered Clouds
6:15 PM 64.4 °F 57.2 °F 77% 30.16 in 10.0 mi SSE 5.8 mph - N/A   Mostly Cloudy
6:35 PM 64.4 °F 57.2 °F 77% 30.16 in 10.0 mi SE 6.9 mph - N/A   Partly Cloudy
6:55 PM 66.2 °F 57.2 °F 73% 30.16 in 10.0 mi SSE 9.2 mph - N/A   Clear
7:15 PM 64.4 °F 57.2 °F 77% 30.16 in 10.0 mi SSE 8.1 mph - N/A   Clear
7:35 PM 64.4 °F 57.2 °F 77% 30.16 in 10.0 mi SSE 8.1 mph - N/A   Clear
7:55 PM 64.4 °F 57.2 °F 77% 30.16 in 10.0 mi SSE 8.1 mph - N/A   Clear
8:15 PM 62.6 °F 57.2 °F 82% 30.16 in 10.0 mi SSE 8.1 mph - N/A   Clear
8:35 PM 64.4 °F 57.2 °F 77% 30.17 in 10.0 mi SSE 12.7 mph - N/A   Clear
8:55 PM 64.4 °F 59.0 °F 83% 30.17 in 10.0 mi SSE 11.5 mph - N/A   Clear
9:15 PM 64.4 °F 59.0 °F 83% 30.18 in 10.0 mi SSE 10.4 mph - N/A   Clear
9:35 PM 62.6 °F 60.8 °F 94% 30.17 in 10.0 mi SSE 11.5 mph 17.3 mph N/A   Clear
9:55 PM 62.6 °F 60.8 °F 94% 30.18 in 10.0 mi SSE 9.2 mph - N/A   Clear
10:15 PM 62.6 °F 60.8 °F 94% 30.18 in 10.0 mi South 10.4 mph - N/A   Clear
10:35 PM 62.6 °F 60.8 °F 94% 30.18 in 10.0 mi South 9.2 mph - N/A   Clear
10:55 PM 62.6 °F 60.8 °F 94% 30.18 in 10.0 mi South 10.4 mph - N/A   Clear
11:15 PM 62.6 °F 60.8 °F 94% 30.18 in 10.0 mi SSE 10.4 mph 16.1 mph N/A   Clear
11:35 PM 62.6 °F 60.8 °F 94% 30.18 in 10.0 mi SSE 9.2 mph - N/A   Clear
11:55 PM 62.6 °F 60.8 °F 94% 30.18 in 10.0 mi SSE 8.1 mph - N/A   Clear